Time,TemperatureF,DewpointF,PressureIn,WindDirection,WindDirectionDegrees,WindSpeedMPH,WindSpeedGustMPH,Humidity,HourlyPrecipIn,Conditions,Clouds,dailyrainin,SoftwareType,DateUTC
2013-04-06 00:00:00,61.4,18.7,29.77,SW,222,0.0,1.0,19,0.00,,,0.00,Wunderground v.1.15,2013-04-06 06:00:00,
2013-04-06 00:10:00,60.7,19.3,29.77,SW,222,0.0,0.0,20,0.00,,,0.00,Wunderground v.1.15,2013-04-06 06:10:00,
2013-04-06 00:20:00,59.8,18.6,29.78,SW,222,0.0,0.0,20,0.00,,,0.00,Wunderground v.1.15,2013-04-06 06:20:00,
2013-04-06 00:30:00,59.5,19.5,29.78,SW,222,0.0,0.0,21,0.00,,,0.00,Wunderground v.1.15,2013-04-06 06:30:00,
2013-04-06 00:40:00,61.3,19.8,29.79,SSW,194,3.0,4.0,20,0.00,,,0.00,Wunderground v.1.15,2013-04-06 06:40:00,
2013-04-06 00:50:00,61.8,19.0,29.79,SSW,198,4.0,4.0,19,0.00,,,0.00,Wunderground v.1.15,2013-04-06 06:50:00,
2013-04-06 01:00:00,61.6,18.9,29.79,SSW,198,3.0,3.0,19,0.00,,,0.00,Wunderground v.1.15,2013-04-06 07:00:00,
2013-04-06 01:10:00,61.1,19.7,29.79,SSW,198,2.0,3.0,20,0.00,,,0.00,Wunderground v.1.15,2013-04-06 07:10:00,
2013-04-06 01:20:00,60.7,20.5,29.78,SSW,198,1.0,1.0,21,0.00,,,0.00,Wunderground v.1.15,2013-04-06 07:20:00,
2013-04-06 01:30:00,60.2,20.1,29.79,SSW,198,1.0,3.0,21,0.00,,,0.00,Wunderground v.1.15,2013-04-06 07:30:00,
2013-04-06 01:40:00,59.2,20.3,29.79,SSW,198,1.0,3.0,22,0.00,,,0.00,Wunderground v.1.15,2013-04-06 07:40:00,
2013-04-06 01:50:00,58.5,20.8,29.79,South,182,2.0,2.0,23,0.00,,,0.00,Wunderground v.1.15,2013-04-06 07:50:00,
2013-04-06 02:00:00,58.0,20.4,29.79,SSE,155,1.0,1.0,23,0.00,,,0.00,Wunderground v.1.15,2013-04-06 08:00:00,
2013-04-06 02:10:00,59.0,22.2,29.79,SW,226,1.0,1.0,24,0.00,,,0.00,Wunderground v.1.15,2013-04-06 08:10:00,
2013-04-06 02:20:00,61.1,23.0,29.78,SW,235,6.0,6.0,23,0.00,,,0.00,Wunderground v.1.15,2013-04-06 08:20:00,
2013-04-06 02:30:00,61.2,23.1,29.77,West,260,7.0,7.0,23,0.00,,,0.00,Wunderground v.1.15,2013-04-06 08:30:00,
2013-04-06 02:40:00,61.1,23.0,29.78,NW,315,5.0,6.0,23,0.00,,,0.00,Wunderground v.1.15,2013-04-06 08:40:00,
2013-04-06 02:50:00,60.5,22.5,29.78,NW,313,4.0,4.0,23,0.00,,,0.00,Wunderground v.1.15,2013-04-06 08:50:00,
2013-04-06 03:00:00,60.0,23.1,29.77,NW,309,2.0,3.0,24,0.00,,,0.00,Wunderground v.1.15,2013-04-06 09:00:00,
2013-04-06 03:10:00,60.0,23.1,29.78,NW,317,2.0,2.0,24,0.00,,,0.00,Wunderground v.1.15,2013-04-06 09:10:00,
2013-04-06 03:20:00,59.5,23.6,29.78,NW,317,0.0,3.0,25,0.00,,,0.00,Wunderground v.1.15,2013-04-06 09:20:00,
2013-04-06 03:30:00,58.1,23.3,29.78,NW,317,0.0,3.0,26,0.00,,,0.00,Wunderground v.1.15,2013-04-06 09:30:00,
2013-04-06 03:40:00,58.1,25.1,29.77,NW,317,1.0,1.0,28,0.00,,,0.00,Wunderground v.1.15,2013-04-06 09:40:00,
2013-04-06 04:00:00,56.6,25.5,29.78,NW,317,0.0,3.0,30,0.00,,,0.00,Wunderground v.1.15,2013-04-06 10:00:00,
2013-04-06 04:20:00,54.1,23.3,29.78,NW,317,0.0,3.0,30,0.00,,,0.00,Wunderground v.1.15,2013-04-06 10:20:00,
2013-04-06 04:30:00,53.5,24.3,29.78,NW,317,0.0,3.0,32,0.00,,,0.00,Wunderground v.1.15,2013-04-06 10:30:00,
2013-04-06 04:40:00,53.8,23.1,29.78,NW,317,1.0,3.0,30,0.00,,,0.00,Wunderground v.1.15,2013-04-06 10:40:00,
2013-04-06 04:50:00,54.5,23.7,29.79,NW,317,0.0,3.0,30,0.00,,,0.00,Wunderground v.1.15,2013-04-06 10:50:00,
2013-04-06 05:00:00,54.8,23.1,29.78,NW,317,0.0,3.0,29,0.00,,,0.00,Wunderground v.1.15,2013-04-06 11:00:00,
2013-04-06 05:10:00,53.7,23.0,29.79,NNW,335,1.0,1.0,30,0.00,,,0.00,Wunderground v.1.15,2013-04-06 11:10:00,
2013-04-06 05:20:00,53.1,24.0,29.79,NNW,335,0.0,3.0,32,0.00,,,0.00,Wunderground v.1.15,2013-04-06 11:20:00,
2013-04-06 05:30:00,52.6,23.5,29.79,NNW,335,0.0,3.0,32,0.00,,,0.00,Wunderground v.1.15,2013-04-06 11:30:00,
2013-04-06 05:40:00,51.9,23.7,29.79,NNW,335,0.0,3.0,33,0.00,,,0.00,Wunderground v.1.15,2013-04-06 11:40:00,
2013-04-06 05:50:00,51.8,23.6,29.79,NNW,335,0.0,3.0,33,0.00,,,0.00,Wunderground v.1.15,2013-04-06 11:50:00,
2013-04-06 06:00:00,51.8,23.6,29.80,NNW,335,0.0,3.0,33,0.00,,,0.00,Wunderground v.1.15,2013-04-06 12:00:00,
2013-04-06 06:10:00,51.7,24.2,29.80,NNW,335,1.0,3.0,34,0.00,,,0.00,Wunderground v.1.15,2013-04-06 12:10:00,
2013-04-06 06:20:00,51.4,23.9,29.81,NNW,335,1.0,1.0,34,0.00,,,0.00,Wunderground v.1.15,2013-04-06 12:20:00,
2013-04-06 06:30:00,50.9,24.2,29.82,NNW,335,0.0,3.0,35,0.00,,,0.00,Wunderground v.1.15,2013-04-06 12:30:00,
2013-04-06 06:40:00,50.4,24.4,29.82,NNW,335,0.0,3.0,36,0.00,,,0.00,Wunderground v.1.15,2013-04-06 12:40:00,
2013-04-06 06:50:00,50.3,24.3,29.82,NNW,335,0.0,3.0,36,0.00,,,0.00,Wunderground v.1.15,2013-04-06 12:50:00,
2013-04-06 07:00:00,50.1,24.8,29.83,NNW,335,0.0,3.0,37,0.00,,,0.00,Wunderground v.1.15,2013-04-06 13:00:00,
2013-04-06 07:10:00,50.3,25.0,29.83,NNW,335,0.0,3.0,37,0.00,,,0.00,Wunderground v.1.15,2013-04-06 13:10:00,
2013-04-06 07:20:00,50.1,24.8,29.83,NNW,335,0.0,3.0,37,0.00,,,0.00,Wunderground v.1.15,2013-04-06 13:20:00,
2013-04-06 07:30:00,49.9,24.6,29.83,NNW,335,0.0,3.0,37,0.00,,,0.00,Wunderground v.1.15,2013-04-06 13:30:00,
2013-04-06 07:40:00,50.5,25.2,29.83,NNW,335,0.0,3.0,37,0.00,,,0.00,Wunderground v.1.15,2013-04-06 13:40:00,
2013-04-06 07:50:00,51.8,25.7,29.83,NNW,335,0.0,3.0,36,0.00,,,0.00,Wunderground v.1.15,2013-04-06 13:50:00,
2013-04-06 08:00:00,53.7,26.0,29.84,NNW,336,0.0,3.0,34,0.00,,,0.00,Wunderground v.1.15,2013-04-06 14:00:00,
2013-04-06 08:10:00,55.6,26.2,29.84,NNW,342,0.0,3.0,32,0.00,,,0.00,Wunderground v.1.15,2013-04-06 14:10:00,
2013-04-06 08:20:00,57.1,25.9,29.84,NNW,342,0.0,3.0,30,0.00,,,0.00,Wunderground v.1.15,2013-04-06 14:20:00,
2013-04-06 08:30:00,58.0,25.9,29.84,NNE,12,1.0,3.0,29,0.00,,,0.00,Wunderground v.1.15,2013-04-06 14:30:00,
2013-04-06 08:40:00,58.8,25.7,29.84,NNE,18,1.0,1.0,28,0.00,,,0.00,Wunderground v.1.15,2013-04-06 14:40:00,
2013-04-06 09:00:00,59.6,25.5,29.85,NNE,18,0.0,3.0,27,0.00,,,0.00,Wunderground v.1.15,2013-04-06 15:00:00,
2013-04-06 09:10:00,60.2,26.9,29.85,NNE,18,0.0,3.0,28,0.00,,,0.00,Wunderground v.1.15,2013-04-06 15:10:00,
2013-04-06 09:20:00,60.2,26.1,29.85,NNE,18,1.0,4.0,27,0.00,,,0.00,Wunderground v.1.15,2013-04-06 15:20:00,
2013-04-06 09:30:00,60.0,25.9,29.85,NNE,18,3.0,3.0,27,0.00,,,0.00,Wunderground v.1.15,2013-04-06 15:30:00,
2013-04-06 09:40:00,61.0,26.7,29.85,NNE,19,1.0,3.0,27,0.00,,,0.00,Wunderground v.1.15,2013-04-06 15:40:00,
2013-04-06 09:50:00,62.5,26.2,29.85,NNE,18,1.0,1.0,25,0.00,,,0.00,Wunderground v.1.15,2013-04-06 15:50:00,
2013-04-06 10:00:00,61.8,25.6,29.85,NNE,18,0.0,3.0,25,0.00,,,0.00,Wunderground v.1.15,2013-04-06 16:00:00,
2013-04-06 10:10:00,62.5,26.2,29.85,NNE,18,0.0,3.0,25,0.00,,,0.00,Wunderground v.1.15,2013-04-06 16:10:00,
2013-04-06 10:20:00,63.9,26.4,29.85,NNE,18,0.0,3.0,24,0.00,,,0.00,Wunderground v.1.15,2013-04-06 16:20:00,
2013-04-06 10:30:00,63.6,25.1,29.85,East,87,1.0,5.0,23,0.00,,,0.00,Wunderground v.1.15,2013-04-06 16:30:00,
2013-04-06 10:40:00,62.3,25.0,29.85,East,87,3.0,3.0,24,0.00,,,0.00,Wunderground v.1.15,2013-04-06 16:40:00,
2013-04-06 10:50:00,62.9,25.5,29.85,East,87,1.0,3.0,24,0.00,,,0.00,Wunderground v.1.15,2013-04-06 16:50:00,
2013-04-06 11:00:00,62.9,25.5,29.85,East,87,2.0,2.0,24,0.00,,,0.00,Wunderground v.1.15,2013-04-06 17:00:00,
2013-04-06 11:10:00,63.1,24.7,29.85,East,87,2.0,2.0,23,0.00,,,0.00,Wunderground v.1.15,2013-04-06 17:10:00,
2013-04-06 11:30:00,64.3,24.6,29.85,SW,227,2.0,2.0,22,0.00,,,0.00,Wunderground v.1.15,2013-04-06 17:30:00,
2013-04-06 11:40:00,65.8,24.7,29.85,SW,235,1.0,1.0,21,0.00,,,0.00,Wunderground v.1.15,2013-04-06 17:40:00,
2013-04-06 11:50:00,66.6,25.4,29.85,SW,229,1.0,3.0,21,0.00,,,0.00,Wunderground v.1.15,2013-04-06 17:50:00,
2013-04-06 12:00:00,67.0,24.6,29.84,South,176,1.0,3.0,20,0.00,,,0.00,Wunderground v.1.15,2013-04-06 18:00:00,
2013-04-06 12:10:00,67.5,25.0,29.84,SW,232,2.0,2.0,20,0.00,,,0.00,Wunderground v.1.15,2013-04-06 18:10:00,
2013-04-06 12:20:00,67.7,23.9,29.83,SW,226,2.0,3.0,19,0.00,,,0.00,Wunderground v.1.15,2013-04-06 18:20:00,
2013-04-06 12:30:00,69.4,24.0,29.83,NW,307,2.0,2.0,18,0.00,,,0.00,Wunderground v.1.15,2013-04-06 18:30:00,
2013-04-06 12:40:00,69.8,24.3,29.82,NW,321,2.0,3.0,18,0.00,,,0.00,Wunderground v.1.15,2013-04-06 18:40:00,
2013-04-06 12:50:00,69.8,24.3,29.82,ESE,116,2.0,3.0,18,0.00,,,0.00,Wunderground v.1.15,2013-04-06 18:50:00,
2013-04-06 13:00:00,69.5,24.1,29.81,SSW,207,4.0,7.0,18,0.00,,,0.00,Wunderground v.1.15,2013-04-06 19:00:00,
2013-04-06 13:10:00,69.8,24.3,29.81,WSW,247,4.0,4.0,18,0.00,,,0.00,Wunderground v.1.15,2013-04-06 19:10:00,
2013-04-06 13:20:00,69.2,25.1,29.80,South,182,4.0,4.0,19,0.00,,,0.00,Wunderground v.1.15,2013-04-06 19:20:00,
2013-04-06 13:30:00,69.6,24.2,29.80,SSW,200,3.0,3.0,18,0.00,,,0.00,Wunderground v.1.15,2013-04-06 19:30:00,
2013-04-06 13:50:00,70.7,23.7,29.78,SSE,159,4.0,8.0,17,0.00,,,0.00,Wunderground v.1.15,2013-04-06 19:50:00,
2013-04-06 14:00:00,71.4,24.3,29.77,SSW,197,2.0,2.0,17,0.00,,,0.00,Wunderground v.1.15,2013-04-06 20:00:00,
2013-04-06 14:10:00,73.4,24.4,29.77,South,175,1.0,3.0,16,0.00,,,0.00,Wunderground v.1.15,2013-04-06 20:10:00,
2013-04-06 14:20:00,71.3,24.2,29.76,SE,137,4.0,4.0,17,0.00,,,0.00,Wunderground v.1.15,2013-04-06 20:20:00,
2013-04-06 14:30:00,71.9,24.7,29.75,SW,224,5.0,6.0,17,0.00,,,0.00,Wunderground v.1.15,2013-04-06 20:30:00,
2013-04-06 14:40:00,72.3,23.6,29.75,SW,231,6.0,6.0,16,0.00,,,0.00,Wunderground v.1.15,2013-04-06 20:40:00,
2013-04-06 14:50:00,72.7,23.9,29.74,SW,228,3.0,4.0,16,0.00,,,0.00,Wunderground v.1.15,2013-04-06 20:50:00,
2013-04-06 15:00:00,71.9,21.7,29.74,SSE,159,6.0,6.0,15,0.00,,,0.00,Wunderground v.1.15,2013-04-06 21:00:00,
2013-04-06 15:10:00,73.7,23.1,29.73,SSE,150,2.0,4.0,15,0.00,,,0.00,Wunderground v.1.15,2013-04-06 21:10:00,
2013-04-06 15:20:00,74.9,22.5,29.73,West,269,4.0,4.0,14,0.00,,,0.00,Wunderground v.1.15,2013-04-06 21:20:00,
2013-04-06 15:30:00,75.4,21.1,29.72,SSW,198,4.0,7.0,13,0.00,,,0.00,Wunderground v.1.15,2013-04-06 21:30:00,
2013-04-06 15:40:00,73.8,21.6,29.71,SSE,167,6.0,6.0,14,0.00,,,0.00,Wunderground v.1.15,2013-04-06 21:40:00,
2013-04-06 15:50:00,73.6,21.4,29.71,SE,136,6.0,6.0,14,0.00,,,0.00,Wunderground v.1.15,2013-04-06 21:50:00,
2013-04-06 16:00:00,74.3,20.2,29.70,SSW,198,5.0,9.0,13,0.00,,,0.00,Wunderground v.1.15,2013-04-06 22:00:00,
2013-04-06 16:10:00,74.8,20.6,29.69,WSW,240,7.0,7.0,13,0.00,,,0.00,Wunderground v.1.15,2013-04-06 22:10:00,
2013-04-06 16:20:00,75.2,19.1,29.69,SW,220,3.0,3.0,12,0.00,,,0.00,Wunderground v.1.15,2013-04-06 22:20:00,
2013-04-06 16:30:00,75.6,19.4,29.69,WSW,238,2.0,3.0,12,0.00,,,0.00,Wunderground v.1.15,2013-04-06 22:30:00,
2013-04-06 16:50:00,75.4,19.2,29.68,South,184,3.0,7.0,12,0.00,,,0.00,Wunderground v.1.15,2013-04-06 22:50:00,
2013-04-06 17:00:00,75.5,19.3,29.67,South,186,5.0,5.0,12,0.00,,,0.00,Wunderground v.1.15,2013-04-06 23:00:00,
2013-04-06 17:10:00,75.3,17.1,29.67,SW,223,6.0,8.0,11,0.00,,,0.00,Wunderground v.1.15,2013-04-06 23:10:00,
2013-04-06 17:20:00,76.6,15.9,29.67,WSW,258,6.0,10.0,10,0.00,,,0.00,Wunderground v.1.15,2013-04-06 23:20:00,
2013-04-06 17:30:00,77.0,16.2,29.66,SSW,200,5.0,5.0,10,0.00,,,0.00,Wunderground v.1.15,2013-04-06 23:30:00,
2013-04-06 17:40:00,76.5,15.8,29.66,SW,232,8.0,11.0,10,0.00,,,0.00,Wunderground v.1.15,2013-04-06 23:40:00,
2013-04-06 17:50:00,76.2,15.6,29.66,SSW,205,8.0,16.0,10,0.00,,,0.00,Wunderground v.1.15,2013-04-06 23:50:00,
2013-04-06 18:00:00,75.8,15.3,29.66,South,178,10.0,10.0,10,0.00,,,0.00,Wunderground v.1.15,2013-04-07 00:00:00,
2013-04-06 18:10:00,75.9,15.4,29.66,SSW,213,9.0,9.0,10,0.00,,,0.00,Wunderground v.1.15,2013-04-07 00:10:00,
2013-04-06 18:20:00,75.0,16.9,29.66,South,191,8.0,8.0,11,0.00,,,0.00,Wunderground v.1.15,2013-04-07 00:20:00,
2013-04-06 18:30:00,75.9,15.4,29.66,SSW,208,7.0,7.0,10,0.00,,,0.00,Wunderground v.1.15,2013-04-07 00:30:00,
2013-04-06 18:40:00,75.5,15.1,29.66,SW,227,9.0,9.0,10,0.00,,,0.00,Wunderground v.1.15,2013-04-07 00:40:00,
2013-04-06 18:50:00,75.0,14.7,29.66,WSW,250,7.0,9.0,10,0.00,,,0.00,Wunderground v.1.15,2013-04-07 00:50:00,
2013-04-06 19:00:00,74.5,16.5,29.66,SW,230,8.0,8.0,11,0.00,,,0.00,Wunderground v.1.15,2013-04-07 01:00:00,
2013-04-06 19:10:00,74.2,16.3,29.65,SSW,205,8.0,12.0,11,0.00,,,0.00,Wunderground v.1.15,2013-04-07 01:10:00,
2013-04-06 19:20:00,73.9,16.0,29.66,SW,220,7.0,7.0,11,0.00,,,0.00,Wunderground v.1.15,2013-04-07 01:20:00,
2013-04-06 19:30:00,73.6,15.8,29.66,South,188,5.0,9.0,11,0.00,,,0.00,Wunderground v.1.15,2013-04-07 01:30:00,
2013-04-06 19:40:00,73.3,15.6,29.66,SW,214,6.0,6.0,11,0.00,,,0.00,Wunderground v.1.15,2013-04-07 01:40:00,
2013-04-06 19:50:00,73.0,15.3,29.66,South,191,5.0,9.0,11,0.00,,,0.00,Wunderground v.1.15,2013-04-07 01:50:00,
2013-04-06 20:00:00,72.6,15.0,29.67,SW,230,6.0,6.0,11,0.00,,,0.00,Wunderground v.1.15,2013-04-07 02:00:00,
2013-04-06 20:10:00,72.3,14.8,29.67,WSW,240,6.0,6.0,11,0.00,,,0.00,Wunderground v.1.15,2013-04-07 02:10:00,
2013-04-06 20:20:00,72.0,14.6,29.67,WSW,239,7.0,8.0,11,0.00,,,0.00,Wunderground v.1.15,2013-04-07 02:20:00,
2013-04-06 20:30:00,71.6,14.2,29.68,WSW,242,7.0,7.0,11,0.00,,,0.00,Wunderground v.1.15,2013-04-07 02:30:00,
2013-04-06 20:40:00,71.2,15.9,29.68,WSW,251,6.0,6.0,12,0.00,,,0.00,Wunderground v.1.15,2013-04-07 02:40:00,
2013-04-06 20:50:00,70.9,15.7,29.68,WSW,244,5.0,5.0,12,0.00,,,0.00,Wunderground v.1.15,2013-04-07 02:50:00,
2013-04-06 21:00:00,70.6,17.3,29.68,WSW,250,4.0,4.0,13,0.00,,,0.00,Wunderground v.1.15,2013-04-07 03:00:00,
2013-04-06 21:10:00,70.3,17.1,29.68,WSW,252,5.0,5.0,13,0.00,,,0.00,Wunderground v.1.15,2013-04-07 03:10:00,
2013-04-06 21:20:00,70.1,16.9,29.68,West,259,4.0,4.0,13,0.00,,,0.00,Wunderground v.1.15,2013-04-07 03:20:00,
2013-04-06 21:30:00,69.8,18.4,29.68,NW,308,4.0,5.0,14,0.00,,,0.00,Wunderground v.1.15,2013-04-07 03:30:00,
2013-04-06 21:40:00,69.3,18.0,29.69,WSW,254,3.0,3.0,14,0.00,,,0.00,Wunderground v.1.15,2013-04-07 03:40:00,
2013-04-06 21:50:00,68.8,17.6,29.69,WSW,256,3.0,6.0,14,0.00,,,0.00,Wunderground v.1.15,2013-04-07 03:50:00,
2013-04-06 22:00:00,68.5,17.4,29.70,WSW,258,3.0,3.0,14,0.00,,,0.00,Wunderground v.1.15,2013-04-07 04:00:00,
2013-04-06 22:10:00,68.2,17.1,29.70,WSW,255,2.0,2.0,14,0.00,,,0.00,Wunderground v.1.15,2013-04-07 04:10:00,
2013-04-06 22:20:00,68.0,18.6,29.70,WSW,250,4.0,4.0,15,0.00,,,0.00,Wunderground v.1.15,2013-04-07 04:20:00,
2013-04-06 22:30:00,67.8,18.4,29.70,WSW,249,2.0,4.0,15,0.00,,,0.00,Wunderground v.1.15,2013-04-07 04:30:00,
2013-04-06 22:40:00,67.7,18.3,29.70,WSW,249,3.0,4.0,15,0.00,,,0.00,Wunderground v.1.15,2013-04-07 04:40:00,
2013-04-06 22:50:00,67.6,18.3,29.71,WSW,246,3.0,3.0,15,0.00,,,0.00,Wunderground v.1.15,2013-04-07 04:50:00,
2013-04-06 23:00:00,67.3,18.0,29.70,WSW,246,1.0,1.0,15,0.00,,,0.00,Wunderground v.1.15,2013-04-07 05:00:00,
2013-04-06 23:10:00,67.0,19.3,29.71,WSW,246,0.0,3.0,16,0.00,,,0.00,Wunderground v.1.15,2013-04-07 05:10:00,
2013-04-06 23:20:00,67.1,17.8,29.70,WSW,246,0.0,3.0,15,0.00,,,0.00,Wunderground v.1.15,2013-04-07 05:20:00,
2013-04-06 23:30:00,67.2,17.9,29.70,NW,320,2.0,2.0,15,0.00,,,0.00,Wunderground v.1.15,2013-04-07 05:30:00,
2013-04-06 23:40:00,67.1,19.4,29.71,NW,320,0.0,3.0,16,0.00,,,0.00,Wunderground v.1.15,2013-04-07 05:40:00,
2013-04-06 23:50:00,66.5,18.9,29.71,NW,309,2.0,2.0,16,0.00,,,0.00,Wunderground v.1.15,2013-04-07 05:50:00,